Theta_e
312 312 312 311 310 309 311 310 309 310 309 308 308 308 308 309 308 306 309 308 310 312 314 313 314 317 317 320 322 324 327 328 326 328 327 325 326 325 325 329 331 331 335 339 342
311 312 312 312 310 309 309 310 309 308 310 309 308 308 308 308 307 308 307 309 310 312 312 312 313 315 317 320 323 327 327 327 323 325 327 325 325 325 329 328 337 342 341 341 342
312 311 312 312 311 309 308 308 310 308 308 309 308 308 308 307 308 308 311 308 310 306 310 311 312 314 318 319 321 326 327 326 325 326 328 326 325 326 328 330 328 343 342 341 341
312 312 311 312 311 310 309 308 307 310 309 309 308 307 307 305 309 308 309 307 309 310 309 311 312 314 318 321 320 326 324 324 326 326 328 326 324 326 328 325 323 334 340 340 342
312 312 311 311 310 309 309 309 306 308 310 309 308 307 305 307 308 307 306 306 306 308 309 311 312 313 317 319 319 323 324 324 324 327 327 327 326 325 325 322 321 323 338 339 340
312 311 311 310 309 309 308 308 306 306 308 309 309 307 306 307 305 305 305 305 306 307 309 311 310 312 316 318 320 320 322 325 326 326 327 328 325 324 324 322 322 323 325 333 338
311 311 310 309 309 308 307 307 306 305 307 309 308 307 306 306 304 305 304 304 306 306 309 308 307 310 312 317 317 319 324 324 327 326 326 325 328 325 322 321 322 322 322 323 325
311 310 309 308 306 306 305 305 305 305 307 309 308 307 306 303 305 304 303 305 305 306 309 308 308 310 312 313 317 318 322 328 324 328 326 323 327 324 321 320 321 321 320 321 322
310 309 307 306 305 305 304 305 305 305 308 308 307 306 306 305 305 305 304 305 306 307 309 308 309 313 315 316 319 319 324 325 323 325 325 327 325 323 322 320 320 320 319 320 321
309 308 305 305 304 304 303 304 306 307 305 306 307 307 304 306 306 306 306 306 307 308 308 309 308 312 313 318 322 321 322 324 325 320 324 325 324 322 322 321 320 319 318 318 319
308 307 305 305 304 304 304 304 306 306 306 306 307 306 306 306 305 307 307 307 307 308 309 308 311 314 313 313 316 317 319 324 322 319 321 323 322 323 322 322 321 319 318 318 318
308 306 304 304 304 304 303 304 305 305 305 307 306 306 306 306 307 308 308 308 309 310 310 310 312 312 313 314 316 319 322 323 322 322 320 321 321 322 321 321 320 320 319 318 318
307 305 304 303 304 304 303 305 305 306 306 309 308 309 309 307 309 309 309 309 309 311 311 314 313 313 314 316 319 319 321 322 323 322 322 323 323 323 322 319 319 318 318 318 317
306 305 304 303 304 305 305 305 304 305 309 312 311 310 309 307 310 307 308 309 310 311 308 313 314 316 316 319 319 317 315 320 324 325 327 323 326 323 322 320 318 317 317 318 318
305 304 304 303 305 306 306 305 305 306 307 312 311 309 310 310 309 309 309 308 310 312 315 315 315 319 319 319 317 318 318 322 324 322 320 322 319 316 320 320 319 317 317 316 317
304 303 304 303 304 306 305 305 306 310 300 314 311 311 311 312 311 310 312 309 309 315 314 313 313 316 318 319 316 318 318 318 319 319 316 320 318 315 316 319 318 318 317 316 315
303 304 304 304 307 306 305 305 312 312 309 315 312 310 313 314 314 313 314 313 313 313 316 314 315 314 317 317 316 317 316 318 318 316 318 314 316 314 312 312 312 316 312 314 314
304 305 306 307 307 305 306 307 312 310 315 314 313 313 314 313 312 312 313 312 313 314 315 312 315 317 317 316 316 316 314 315 318 315 316 313 315 313 312 310 309 309 308 306 305
304 306 306 306 306 307 308 312 310 313 314 315 314 312 311 312 313 313 313 313 312 314 319 319 319 315 317 315 315 317 312 312 312 311 311 313 313 312 311 310 309 310 309 308 307
306 307 307 306 306 307 310 311 312 312 313 315 317 316 315 312 313 314 316 313 314 314 315 316 318 317 316 315 314 315 314 312 309 310 316 314 312 311 311 310 311 311 310 310 310
308 308 307 306 307 309 312 312 312 312 311 314 314 314 312 314 314 315 315 314 313 313 312 315 314 315 315 317 317 317 318 316 314 314 318 313 311 308 308 309 310 310 310 310 310
307 307 307 307 308 310 312 311 311 312 311 313 314 314 315 314 315 316 316 315 313 313 314 313 314 315 317 315 314 317 317 316 317 317 313 312 312 307 308 308 310 310 309 310 310
307 307 307 307 306 311 312 312 313 313 311 312 314 312 315 314 316 316 314 314 313 314 314 313 310 316 313 312 314 318 317 316 314 313 315 312 311 308 308 308 308 308 309 307 309
304 307 308 306 305 309 311 312 313 311 310 310 311 311 311 313 314 314 314 314 313 313 312 311 314 310 310 311 314 317 317 317 314 309 316 316 312 310 310 311 310 308 308 308 308
305 304 304 308 306 307 310 311 314 313 311 310 311 311 312 315 314 315 313 315 314 313 313 313 311 307 312 313 314 315 316 316 314 314 313 314 314 313 310 309 309 310 311 310 308
305 305 303 303 305 307 308 311 313 313 312 311 312 311 311 313 311 313 313 314 314 313 314 310 309 308 308 311 311 313 312 313 314 315 315 315 314 310 309 310 311 310 308 307 307
301 301 302 306 305 306 308 310 314 311 311 310 311 311 311 309 307 307 307 309 311 312 314 312 306 305 309 309 308 308 308 311 313 313 313 315 312 311 311 311 310 308 308 308 307
Wind_Speed
13 13 13 11 12 14 16 12 13 13 11 12 13 13 14 15 15 10 9 10 12 17 14 12 12 14 15 4 5 2 5 10 8 5 3 5 5 0 0 5 5 4 3 10 25
15 15 15 12 11 13 16 16 11 12 12 11 12 14 15 16 16 13 12 10 14 10 17 3 6 7 5 4 5 6 7 13 8 5 2 4 6 7 4 6 5 7 9 14 17
14 15 16 14 12 11 14 15 14 12 12 11 12 14 15 16 6 3 2 4 5 9 16 11 7 6 13 8 6 6 11 9 3 4 6 9 4 5 9 2 4 10 9 8 15
16 16 16 17 13 12 13 13 14 15 13 11 11 12 17 8 4 2 2 2 5 4 8 6 5 4 9 13 7 5 12 15 6 3 3 6 6 5 2 5 8 10 11 4 9
16 15 15 16 13 12 14 13 14 15 14 11 10 10 10 2 8 3 2 3 5 5 5 8 11 6 15 10 4 15 5 13 12 5 3 8 6 6 8 7 8 9 9 7 6
16 15 14 15 13 13 13 13 14 15 15 9 8 7 3 7 7 5 2 5 6 5 1 7 5 0 5 5 15 8 17 8 9 11 3 3 0 5 7 7 8 7 9 9 7
16 16 14 14 14 14 14 14 13 14 14 12 7 4 4 14 9 15 6 8 5 11 7 13 1 7 9 3 9 10 8 8 7 10 5 2 3 3 7 8 10 7 7 8 8
15 15 13 12 14 14 15 14 14 14 11 11 5 3 5 14 14 12 10 4 7 5 5 10 5 2 4 9 3 9 5 10 3 10 7 1 5 10 8 7 7 7 7 8 8
14 14 13 12 14 14 13 15 17 11 11 7 4 6 6 7 6 4 7 7 6 5 7 8 2 4 4 4 2 5 7 15 5 1 6 6 7 18 10 8 7 5 6 5 7
13 13 12 12 13 12 15 17 10 7 4 6 6 4 6 4 3 7 5 5 3 8 4 3 3 2 5 5 11 11 8 12 5 6 5 7 8 11 11 7 9 9 9 8 6
11 11 11 10 10 12 12 6 4 1 5 6 5 4 7 3 11 3 5 4 3 2 3 2 2 6 9 9 7 10 16 8 7 9 5 3 10 15 7 6 9 8 8 8 8
10 10 9 9 9 9 8 2 4 2 5 11 10 6 8 4 2 2 0 3 4 3 7 4 6 6 8 12 10 11 11 8 5 11 4 9 7 13 13 7 8 9 9 8 6
10 8 6 7 8 3 6 6 3 3 1 1 4 3 3 5 1 2 4 2 2 4 7 3 3 6 8 10 9 10 13 9 5 8 2 7 2 14 18 7 6 7 8 7 8
10 6 5 4 2 3 2 2 2 1 3 2 2 1 3 4 0 1 3 3 1 6 4 3 2 7 10 9 7 3 11 17 14 7 3 6 3 16 17 9 8 8 8 8 8
8 7 5 6 1 2 5 3 3 1 2 1 1 3 3 1 2 3 3 3 4 6 5 2 3 8 15 7 9 4 18 19 19 10 3 9 1 4 13 11 12 11 10 9 8
10 7 6 8 7 4 3 6 1 3 3 1 2 3 3 2 3 5 4 6 6 8 8 4 3 4 3 6 11 8 16 8 5 5 2 5 5 5 4 15 6 9 9 10 8
8 11 13 10 4 6 7 2 2 2 3 4 2 2 2 1 2 4 3 2 3 4 5 5 4 1 5 1 7 17 7 3 3 3 3 2 4 6 4 5 6 7 6 3 2
11 14 10 5 9 8 4 1 4 5 4 4 3 1 3 5 3 2 2 5 6 4 3 4 4 8 8 5 3 3 4 4 5 4 3 1 5 3 1 6 8 8 7 8 8
17 11 7 6 11 6 2 1 5 4 2 4 6 2 2 3 0 4 2 2 2 4 4 3 4 6 2 4 2 3 4 3 5 2 4 2 3 3 3 5 9 9 10 8 8
13 10 8 9 10 3 1 1 2 1 1 4 1 2 3 4 2 2 2 4 3 3 0 3 5 6 4 3 7 5 1 3 3 3 3 3 4 3 5 7 8 8 8 7 7
7 4 10 10 6 1 2 3 2 4 2 2 3 3 3 2 2 3 2 2 2 2 4 2 3 3 2 6 3 4 3 2 3 3 3 3 3 5 7 8 10 8 6 6 5
6 3 14 14 2 2 2 5 3 4 2 2 1 5 6 8 3 2 3 2 3 2 2 2 4 3 0 4 3 1 1 3 2 3 2 3 3 4 8 8 9 8 8 4 2
5 3 10 6 3 3 3 3 2 3 3 2 3 1 3 5 4 4 4 1 4 4 1 1 2 3 5 5 3 0 4 4 3 2 2 4 4 3 5 6 4 7 7 5 5
3 4 2 2 2 3 5 5 4 1 1 2 1 2 0 1 3 3 4 1 3 4 3 2 2 4 5 4 4 5 6 5 5 3 2 4 4 4 6 4 6 7 5 4 5
3 4 5 5 5 5 2 8 7 4 2 1 1 2 1 3 4 4 4 3 2 1 3 3 3 3 4 5 2 1 4 7 6 5 5 3 3 1 4 6 4 2 3 5 6
4 4 2 3 4 8 5 6 9 3 2 2 3 6 7 5 2 6 7 3 3 2 0 2 1 3 3 2 4 2 4 3 5 4 5 3 5 3 3 4 6 7 7 7 7
4 2 4 3 5 5 4 4 7 7 3 4 3 5 6 2 2 2 2 4 5 7 4 3 4 2 2 1 0 4 6 5 2 2 3 5 1 4 5 6 6 7 6 6 7
Wind_Direction
326 331 327 332 338 338 327 325 326 322 325 328 331 333 331 335 322 304 251 255 258 265 264 274 288 238 246 254 247 228 198 212 212 197 254 196 124 318 264 84 51 24 79 140 158
326 324 328 321 331 338 335 323 318 318 321 319 327 327 329 331 318 270 262 278 279 257 240 270 282 318 220 243 227 214 201 204 210 178 260 293 116 146 102 96 68 84 80 126 162
317 322 324 320 319 325 329 324 324 314 307 313 318 323 327 331 300 229 213 299 290 276 265 247 280 282 221 222 213 217 211 192 223 138 258 259 124 143 125 98 173 153 146 160 145
310 310 321 319 318 319 319 315 314 315 299 297 310 321 325 332 283 184 264 344 312 271 257 210 224 266 209 212 191 259 227 200 191 156 242 233 154 130 103 135 113 141 147 162 149
307 310 319 321 321 319 315 310 322 304 308 297 299 322 347 316 250 215 78 319 305 254 240 203 200 257 209 201 222 214 261 225 203 174 246 299 170 134 136 127 97 104 146 173 162
305 307 313 318 316 311 310 309 310 306 300 290 289 310 312 272 260 161 222 331 300 244 51 266 192 246 267 255 193 193 230 245 174 193 226 349 301 107 195 134 118 114 142 159 173
299 304 312 315 317 311 308 310 309 308 300 306 286 297 262 251 278 301 275 289 283 282 171 226 19 217 345 222 243 243 193 230 180 194 161 181 289 194 185 151 147 157 144 143 156
295 300 309 312 313 308 307 313 303 301 286 298 274 274 246 275 278 260 271 284 269 254 196 173 152 25 250 325 294 192 245 187 107 169 117 119 236 241 223 160 151 189 182 167 172
289 298 307 310 312 310 312 309 300 285 281 268 258 181 267 272 244 295 270 244 272 175 112 128 113 215 135 201 223 182 199 205 125 219 113 142 230 265 235 204 195 208 238 198 190
284 293 301 311 307 313 319 307 296 282 277 214 247 271 268 279 349 312 274 245 211 125 76 67 30 298 156 182 196 188 178 185 170 156 144 170 274 292 205 168 204 218 227 236 185
281 286 296 303 309 320 322 341 54 183 244 196 192 212 297 301 322 246 270 130 134 139 130 165 203 229 185 202 286 237 188 179 174 158 120 139 230 286 268 203 217 236 227 226 235
270 279 295 303 304 305 298 258 89 225 306 230 255 257 269 117 304 204 326 150 182 162 136 150 230 260 166 200 259 182 132 134 120 148 156 147 243 260 267 239 205 214 232 228 215
256 270 287 303 309 304 211 223 343 342 214 194 218 275 223 147 299 327 352 193 134 192 201 201 150 171 145 228 232 211 162 147 166 152 299 110 348 249 253 232 225 226 212 208 223
259 258 270 268 282 191 221 158 183 301 60 230 175 209 183 107 90 228 325 1 216 212 160 252 204 170 178 208 214 226 185 158 135 134 134 135 216 217 231 245 235 235 218 207 193
253 250 247 193 162 211 138 156 151 114 75 127 260 270 244 166 238 37 70 69 237 199 208 66 31 157 181 198 183 289 148 146 139 130 195 187 13 255 191 217 228 231 219 211 203
248 246 177 168 205 155 175 134 197 71 282 153 126 302 308 144 180 148 225 179 211 92 68 57 304 45 144 238 176 140 89 60 112 130 44 184 158 308 176 210 207 212 210 200 205
245 165 152 156 157 171 146 105 92 83 212 166 152 355 116 158 186 217 192 1 87 82 16 23 345 311 197 77 38 114 105 82 32 35 195 218 89 240 281 81 166 167 97 124 228
172 153 138 160 167 162 154 130 76 246 173 103 88 329 73 5 35 213 53 6 14 55 98 69 20 358 345 39 153 114 129 142 145 165 215 82 174 236 286 121 106 93 101 72 68
160 148 150 179 158 168 114 118 171 233 29 106 144 66 41 302 25 358 85 220 359 61 93 113 41 319 2 336 70 275 50 166 113 67 82 227 285 25 113 76 84 84 69 61 54
165 159 158 176 163 180 169 218 196 227 261 183 132 158 140 168 123 290 21 337 29 36 280 91 89 328 319 13 15 91 201 50 11 117 136 223 178 218 156 125 97 79 81 73 60
182 137 160 165 156 189 204 195 268 160 242 8 106 116 129 199 177 184 84 347 351 300 1 145 100 292 22 26 16 9 23 11 120 117 140 137 264 208 178 150 129 128 133 144 154
173 145 166 166 147 215 209 169 214 161 188 268 48 130 167 186 199 104 110 57 268 94 77 11 98 68 209 279 288 31 77 1 108 306 41 119 308 37 116 141 133 150 105 85 202
140 124 174 181 182 219 159 173 256 193 177 227 165 338 179 163 119 111 110 332 58 25 108 145 128 105 2 352 355 223 179 249 84 61 203 128 247 237 113 120 95 93 52 21 13
119 135 148 179 253 201 171 164 187 62 109 340 30 351 170 158 117 112 105 131 357 357 2 18 112 144 167 200 160 180 188 203 129 112 199 216 148 64 53 66 66 49 47 32 10
155 193 173 177 229 215 216 165 139 167 216 171 298 265 91 126 100 102 107 93 335 315 12 66 94 73 35 31 34 244 194 204 183 184 153 237 212 76 85 114 130 121 40 42 30
142 141 110 182 173 175 229 165 152 115 93 188 169 50 72 78 264 142 138 158 182 210 281 68 132 95 353 3 12 334 289 247 234 188 229 216 265 90 103 94 41 18 37 26 359
175 96 116 155 134 128 209 184 111 118 58 66 57 96 74 110 25 52 73 113 143 157 164 121 128 90 212 115 0 302 237 223 201 75 164 205 86 66 39 42 27 51 35 12 344